Le nostre stazioni meteo in Italia

Pubblicità
Il mio iltempo24.it
Decimomannu, Italia (16546): Temperatura & dewpoint: 24.03.2020 11:00:00 - 30.03.2020 11:00:00 (CEST)Decimomannu, Italia (16546): velocità del vento: 24.03.2020 11:00:00 - 30.03.2020 11:00:00 (CEST)Decimomannu, Italia (16546): direzione del vento: 24.03.2020 11:00:00 - 30.03.2020 11:00:00 (CEST)Decimomannu, Italia (16546): reduced air pressure: 24.03.2020 11:00:00 - 30.03.2020 11:00:00 (CEST)Decimomannu, Italia (16546): visibility: 24.03.2020 11:00:00 - 30.03.2020 11:00:00 (CEST)
Data & Tempo tt [°C] td [°C] ff [km/h] ff [kn] dd ppp [hPa] vv [km]
30.03.2020 11:00:00 14,6 10,8 4 2 ONO 1012,2 12
30.03.2020 10:00:00 9,0 6,0 5 3 ENE - 10
30.03.2020 09:00:00 7,0 4,0 2 1 NO - 10
30.03.2020 08:00:00 6,2 3,0 4 2 NO 1011,4 10
30.03.2020 07:00:00 7,0 4,0 2 1 NNO - 10
30.03.2020 06:00:00 7,0 3,0 8 4 NNE - 10
30.03.2020 05:00:00 7,0 3,8 4 2 N 1011,8 10
30.03.2020 04:00:00 7,0 4,0 4 2 NNE - 10
30.03.2020 03:00:00 7,0 4,0 9 5 NE - 10
30.03.2020 02:00:00 7,0 4,1 4 2 N 1011,8 10
30.03.2020 01:00:00 7,0 4,0 8 4 N - 10
30.03.2020 00:00:00 8,0 5,0 2 1 - - 10
29.03.2020 23:00:00 8,4 5,5 9 5 NE 1012,7 10
29.03.2020 22:00:00 9,0 7,0 9 5 NNO - 10
29.03.2020 21:00:00 9,0 7,0 4 2 O - 10
29.03.2020 20:00:00 9,0 6,6 5 3 S 1012,3 10
29.03.2020 19:00:00 10,0 8,0 8 4 E - 10
29.03.2020 18:00:00 10,0 9,0 11 6 ENE - 5
29.03.2020 17:00:00 13,4 9,5 13 7 O 1011,4 6
29.03.2020 16:00:00 13,0 10,0 15 8 SSE - 10
29.03.2020 15:00:00 16,0 9,0 21 11 SE - 10
29.03.2020 14:00:00 18,2 7,0 5 3 O 1012,2 12
29.03.2020 13:00:00 17,0 8,0 8 4 ONO - 10
29.03.2020 12:00:00 15,0 10,0 9 5 ONO - 10
29.03.2020 11:00:00 11,4 8,1 4 2 O 1013,9 10
29.03.2020 10:00:00 8,0 5,0 5 3 ONO - 10
29.03.2020 09:00:00 7,0 4,0 4 2 ONO - 10
29.03.2020 08:00:00 4,6 1,5 4 2 NNO 1013,7 7
29.03.2020 07:00:00 4,0 1,0 4 2 N - 1,2
29.03.2020 06:00:00 5,0 2,0 5 3 NO - 0,8
29.03.2020 05:00:00 5,8 3,0 8 4 N 1013,9 12
29.03.2020 04:00:00 7,0 5,0 4 2 NE - 10
29.03.2020 03:00:00 8,0 5,0 4 2 NE - 10
29.03.2020 02:00:00 8,0 5,8 8 4 N 1014,9 15
29.03.2020 01:00:00 9,0 7,0 5 3 E - 10
29.03.2020 00:00:00 9,0 8,0 8 4 NNE - 10
28.03.2020 23:00:00 9,6 8,4 8 4 SE 1014,7 15
28.03.2020 22:00:00 11,0 9,0 5 3 SSE - 10
28.03.2020 21:00:00 12,0 10,0 5 3 SSE - 10
28.03.2020 20:00:00 12,2 10,4 8 4 SE 1013,1 20
28.03.2020 19:00:00 14,0 10,0 15 8 SE - 10
28.03.2020 18:00:00 15,0 10,0 16 9 SSE - 10
28.03.2020 17:00:00 16,6 9,8 18 10 SSE 1012,7 20
28.03.2020 16:00:00 17,0 9,0 16 9 SSE - 10
28.03.2020 15:00:00 17,0 9,0 16 9 SE - 10
28.03.2020 14:00:00 17,4 7,2 13 7 SSE 1013,6 20
28.03.2020 13:00:00 17,0 7,0 9 5 S - 10
28.03.2020 12:00:00 16,0 8,0 8 4 S - 10
28.03.2020 11:00:00 14,0 8,2 4 2 SE 1013,4 15
28.03.2020 10:00:00 11,0 8,0 4 2 O - 10
28.03.2020 09:00:00 8,0 5,0 5 3 NNE - 10
28.03.2020 08:00:00 5,4 2,1 5 3 N 1012,5 10
28.03.2020 07:00:00 6,0 3,0 5 3 NNE - 10
28.03.2020 06:00:00 7,0 4,0 2 1 ENE - 10
28.03.2020 05:00:00 7,4 4,2 2 1 NNE 1012,1 12
28.03.2020 04:00:00 7,0 4,0 2 1 O - 10
28.03.2020 03:00:00 8,0 5,0 5 3 NNE - 10
28.03.2020 02:00:00 7,6 4,7 4 2 NNE 1012,0 12
28.03.2020 01:00:00 8,0 5,0 8 4 NE - 10
28.03.2020 00:00:00 8,0 5,0 8 4 ENE - 10
27.03.2020 23:00:00 8,6 6,0 11 6 O 1010,8 12
27.03.2020 22:00:00 9,0 7,0 13 7 N - 10
27.03.2020 21:00:00 9,0 7,0 11 6 NNO - 10
27.03.2020 20:00:00 9,6 6,9 13 7 NO 1007,3 12
27.03.2020 19:00:00 10,0 7,0 16 9 ONO - 10
27.03.2020 18:00:00 10,0 7,0 16 9 NO - 10
27.03.2020 17:00:00 9,6 6,7 24 13 NO 1007,2 20
27.03.2020 16:00:00 10,0 6,0 22 12 NO - 10
27.03.2020 15:00:00 9,0 6,0 13 7 NO - 10
27.03.2020 14:00:00 6,4 3,7 8 4 O 1007,2 8
27.03.2020 13:00:00 6,0 4,0 8 4 NO - 6
27.03.2020 12:00:00 6,0 3,0 13 7 NNO - 5
27.03.2020 11:00:00 5,4 3,2 11 6 NNO 1006,9 8
27.03.2020 10:00:00 5,0 2,0 8 4 NNO - 10
27.03.2020 09:00:00 1,0 -1,0 5 3 N - 10
27.03.2020 08:00:00 0,2 -1,7 5 3 NNE 1006,0 10
27.03.2020 07:00:00 0,0 -2,0 8 4 NO - 10
27.03.2020 06:00:00 0,0 -1,0 9 5 NNO - 10
27.03.2020 05:00:00 0,4 -0,6 5 3 ONO 1006,8 12
27.03.2020 04:00:00 2,0 0,0 4 2 SE - 10
27.03.2020 03:00:00 2,0 1,0 8 4 N - 10
27.03.2020 02:00:00 2,8 1,3 5 3 O 1007,1 15
27.03.2020 01:00:00 4,0 2,0 4 2 NNE - 10
27.03.2020 00:00:00 4,0 3,0 9 5 NNE - 10
26.03.2020 23:00:00 5,4 3,6 4 2 N 1007,2 15
26.03.2020 22:00:00 7,0 4,0 8 4 NNE - 10
26.03.2020 21:00:00 8,0 5,0 8 4 O - 10
26.03.2020 20:00:00 9,4 3,2 18 10 ONO 1006,4 15
26.03.2020 19:00:00 11,0 0,0 22 12 ONO - 10
26.03.2020 18:00:00 11,0 0,0 28 15 O - 10
26.03.2020 17:00:00 13,2 0,6 29 16 NO 1005,5 15
26.03.2020 16:00:00 13,0 1,0 26 14 NO - 10
26.03.2020 15:00:00 13,0 0,0 22 12 NO - 10
26.03.2020 14:00:00 12,6 0,0 28 15 NO 1006,6 15
26.03.2020 13:00:00 12,0 0,0 29 16 NNO - 10
26.03.2020 12:00:00 10,0 1,0 26 14 NO - 10
26.03.2020 11:00:00 9,0 1,7 24 13 NO 1006,9 15
26.03.2020 10:00:00 8,0 2,0 26 14 NO - 10
26.03.2020 09:00:00 2,0 1,0 5 3 NO - 10
26.03.2020 08:00:00 -1,4 -1,4 9 5 N 1007,0 15
26.03.2020 07:00:00 -1,0 -1,0 5 3 NO - 10
26.03.2020 06:00:00 -1,0 -1,0 5 3 N - 10
26.03.2020 05:00:00 0,0 -0,3 5 3 N 1007,7 12
26.03.2020 04:00:00 1,0 1,0 8 4 N - 10
26.03.2020 03:00:00 1,0 1,0 9 5 NNE - 10
26.03.2020 02:00:00 2,6 1,1 11 6 NO 1009,0 15
26.03.2020 01:00:00 3,0 1,0 5 3 ONO - 10
26.03.2020 00:00:00 4,0 2,0 15 8 N - 10
25.03.2020 23:00:00 5,0 2,2 13 7 N 1009,7 15
25.03.2020 22:00:00 6,0 2,0 5 3 NO - 10
25.03.2020 21:00:00 8,0 3,0 9 5 NNE - 10
25.03.2020 20:00:00 9,0 2,4 13 7 ENE 1008,7 15
25.03.2020 19:00:00 11,0 0,0 9 5 NNE - 10
25.03.2020 18:00:00 11,0 0,0 15 8 NNE - 10
25.03.2020 17:00:00 12,0 -0,5 18 10 N 1008,7 20
25.03.2020 16:00:00 12,0 1,0 11 6 NNE - 10
25.03.2020 15:00:00 11,0 1,0 16 9 NNE - 10
25.03.2020 14:00:00 11,0 1,5 24 13 NE 1010,4 20
25.03.2020 13:00:00 12,0 0,0 16 9 ENE - 10
25.03.2020 12:00:00 10,0 0,0 13 7 NNE - 10
25.03.2020 11:00:00 8,6 0,8 15 8 N 1011,8 20
25.03.2020 10:00:00 6,0 1,0 15 8 NO - 10
25.03.2020 09:00:00 4,0 1,0 11 6 ONO - 10
25.03.2020 08:00:00 1,0 0,1 18 10 NNO 1012,0 15
25.03.2020 07:00:00 1,0 1,0 11 6 NO - 10
25.03.2020 06:00:00 3,0 1,0 8 4 N - 10
25.03.2020 05:00:00 4,4 1,4 9 5 N 1013,3 15
25.03.2020 04:00:00 5,0 2,0 11 6 NE - 10
25.03.2020 03:00:00 4,0 1,0 15 8 N - 10
25.03.2020 02:00:00 4,0 1,2 13 7 NO 1014,7 15
25.03.2020 01:00:00 4,0 0,0 11 6 NE - 10
25.03.2020 00:00:00 6,0 -1,0 13 7 NE - 10
24.03.2020 23:00:00 6,0 -1,2 9 5 ENE 1016,1 15
24.03.2020 22:00:00 6,0 -2,0 16 9 ENE - 10
24.03.2020 21:00:00 7,0 -1,0 16 9 NE - 10
24.03.2020 20:00:00 7,4 -1,8 18 10 ENE 1016,0 16
24.03.2020 19:00:00 9,0 -3,0 15 8 ENE - 10
24.03.2020 18:00:00 11,0 -2,0 22 12 ENE - 10
24.03.2020 17:00:00 12,4 -1,5 21 11 ENE 1016,5 25
24.03.2020 16:00:00 13,0 -1,0 18 10 ENE - 10
24.03.2020 15:00:00 13,0 -1,0 15 8 NE - 10
24.03.2020 14:00:00 13,4 -0,6 16 9 ENE 1017,9 25
24.03.2020 13:00:00 13,0 0,0 18 10 E - 10
24.03.2020 12:00:00 13,0 2,0 11 6 SE - 10
24.03.2020 11:00:00 - - - - - - -

tt = Temperatura
td = dewpoint
ff = velocità del vento
dd = direzione del vento
ppp = reduced air pressure
vv = visibility

Stazioni seguenti

WeatherPro
AMSI
MeteoEarth